Location: Bronnegerveen
(52.9548°N, 6.8388°E)
Time: 02:00:29
(UTC+00:00)

Cosmos 1943 Rocket - Pass Details

Date: 15 June 2025
Orbit: 811 x 843 km, 71.0° (Epoch: 07 July)

Event Time Altitude Azimuth Distance (km) Brightness Sun altitude
Exits shadow 00:17:38 - 147° (SSE) 2,537 4.3 -13.1°
Reaches altitude 10° 00:18:10 10° 143° (SE) 2,395 4.2 -13.1°
Maximum altitude 00:21:52 19° 100° (E) 1,867 4.0 -13.0°
Drops below altitude 10° 00:25:34 10° 57° (ENE) 2,414 5.2 -12.9°
Sets 00:28:40 0° 41° (NE) 3,356 6.5 -12.8°
